Regional Weather Roundup
Issued by NWS State College, PA

Home | Current Version | Previous Version | Text Only | Print | Product List | Glossary On
Versions: 1 2 3 4 5 6 7 8 9 10 11 12 13 14 15 16 17 18 19 20 21 22 23 24 25 26 27 28 29 30 31 32 33 34 35 36 37 38 39 40 41 42 43 44 45 46 47 48 49 50
000
ASUS41 KCTP 252010
RWRCTP

REGIONAL WEATHER ROUNDUP
NATIONAL WEATHER SERVICE STATE COLLEGE PA
400 PM EDT TUE JUL 25 2017

Note: "fair" indicates few or no clouds below 12,000 feet with no
significant weather and/or obstructions to visibility.

* = STATION THAT DOES NOT REPORT PRECIPITATION /E.G. RAIN...SNOW...ETC/
    THUNDER OR FOG.

PAZ002>004-007>009-013>016-020>023-029>032-252100-
WESTERN PENNSYLVANIA

CITY           SKY/WX    TMP DP  RH WIND       PRES   REMARKS
ERIE           PTSUNNY   71  56  58 NE13      30.22S
MEADVILLE      PTSUNNY   72  58  61 N8        30.22R
FRANKLIN*      PTSUNNY   73  55  53 N9        30.21S
NEW CASTLE     MOCLDY    73  58  59 CALM      30.21S
BEAVER COUNTY  NOT AVBL
BUTLER*        PTSUNNY   72  57  60 CALM      30.20F
PITTSBURGH INT PTSUNNY   73  58  59 W3        30.20F
PITTSBURGH     PTSUNNY   72  56  57 VRB5      30.20S
INDIANA*       CLOUDY    70  61  73 W6        30.23S
LATROBE        PTSUNNY   68  59  73 VRB6      30.22R
WASHINGTON CO* CLOUDY    70  57  64 CALM      30.22S
$$

PAZ004>006-010>012-017>019-024>028-033>037-041-042-045-046-049>053-252100-
CENTRAL PENNSYLVANIA

CITY           SKY/WX    TMP DP  RH WIND       PRES   REMARKS
BRADFORD       CLOUDY    63  56  78 NW9       30.23R
DUBOIS         CLOUDY    68  54  60 N8        30.21R
CLEARFIELD     CLOUDY    72  56  57 N10       30.20R
JOHNSTOWN      CLOUDY    66  57  72 W9        30.22S
ALTOONA        CLOUDY    69  59  70 NW9       30.20R
STATE COLLEGE  CLOUDY    70  57  64 NW6       30.18R
WILLIAMSPORT   PTSUNNY   73  57  57 N6        30.14R
SELINSGROVE    CLOUDY    73  60  63 NW7       30.15S
FT INDIANTOWN  PTSUNNY   74  60  60 NW9       30.13R
CAPITAL CITY   CLOUDY    76  57  51 NW8       30.13S
HARRISBURG     PTSUNNY   77  61  57 NW10      30.12S
YORK           CLOUDY    76  63  64 N8        30.13S
$$

PAZ038>040-043-044-047-048-054-055-060>062-067>071-252100-
EASTERN PENNSYLVANIA

CITY           SKY/WX    TMP DP  RH WIND       PRES   REMARKS
SCRANTON       CLOUDY    66  60  81 CALM      30.16S
MOUNT POCONO   CLOUDY    64  59  83 NW12      30.17R
ALLENTOWN      CLOUDY    75  62  64 NW7       30.12R
QUAKERTOWN*    MOCLDY    72  64  78 SW3       30.13R
READING        CLOUDY    74  62  66 N6        30.11R
LANCASTER      CLOUDY    78  62  57 NW8       30.12R
COATESVILLE    MOCLDY    75  63  64 NW8       30.13S
POTTSTOWN      CLOUDY    72  66  81 NE6       30.13R
BLUE BELL      CLOUDY    70  64  83 CALM      30.13R
DOYLESTOWN     CLOUDY    73  64  73 VRB5      30.11R
WILLOW GROVE   NOT AVBL
NORTH PHILA    LGT RAIN  73  65  75 CALM      30.13R
PHILADELPHIA   CLOUDY    77  62  59 E6        30.10R
$$



USA.gov is the U.S. government's official web portal to all federal, state and local government web resources and services.